CW4352 Weather Reports


Display with metric or nautical units.
time (UTC)temp
F
wind
direction
speed
MPH
gust
MPH
rain 1hr
in
rain 24hr
in
rain mn
in
humidity
%
barometer
mb
20260507180205 67 36 0.0 3.0 0.00 0.00 0.00 47 1006.6
20260507173205 69 36 1.0 3.0 0.00 0.00 0.00 43 1006.6
20260507171705 70 36 0.0 2.0 0.00 0.00 0.00 42 1006.6
20260507171204 70 36 0.0 1.0 0.00 0.00 0.00 42 1006.4
20260507170205 71 36 1.0 3.0 0.00 0.00 0.00 41 1006.4
20260507164205 71 36 1.0 3.0 0.00 0.00 0.00 40 1006.4
20260507160205 71 36 1.0 3.0 0.00 0.00 0.00 40 1006.4
20260507151205 72 36 1.0 3.0 0.00 0.00 0.00 40 1006.8
20260507144204 73 36 2.0 3.0 0.00 0.00 0.00 39 1006.8
20260507143205 74 36 2.0 6.0 0.00 0.00 0.00 37 1006.7
20260507140205 73 32 2.0 7.0 0.00 0.00 0.00 36 1006.9
20260507134205 73 31 2.0 5.0 0.00 0.00 0.00 38 1006.9
20260507133205 73 23 1.0 5.0 0.00 0.00 0.00 37 1006.9
20260507131704 72 15 1.0 3.0 0.00 0.00 0.00 38 1006.9
20260507131205 72 18 1.0 3.0 0.00 0.00 0.00 39 1006.9
20260507124205 72 17 2.0 5.0 0.00 0.00 0.00 42 1006.9
20260507123704 72 14 2.0 3.0 0.00 0.00 0.00 41 1006.9
20260507121704 71 12 2.0 3.0 0.00 0.00 0.00 41 1007.4
20260507121205 71 26 2.0 5.0 0.00 0.00 0.00 43 1007.4
20260507120204 71 26 1.0 3.0 0.00 0.00 0.00 44 1007.4
20260507113205 70 26 1.0 3.0 0.00 0.00 0.00 42 1007.8
20260507111704 70 27 2.0 5.0 0.00 0.00 0.00 41 1007.8
20260507111204 70 22 1.0 3.0 0.00 0.00 0.00 42 1007.8
20260507110705 69 26 2.0 3.0 0.00 0.00 0.00 44 1007.8
20260507110205 69 33 2.0 6.0 0.00 0.00 0.00 40 1007.8
20260507104705 69 355 1.0 3.0 0.00 0.00 0.00 40 1007.8
20260507103204 70 355 0.0 3.0 0.00 0.02 0.00 40 1008.1
20260507094705 69 336 1.0 5.0 0.00 0.08 0.00 42 1008.1
20260507090705 70 227 0.0 3.0 0.00 0.08 0.00 40 1008.0
20260507090204 69 227 1.0 3.0 0.00 0.08 0.00 40 1007.9
20260507084705 68 227 0.0 3.0 0.00 0.08 0.00 42 1007.9
20260507084205 68 208 1.0 3.0 0.00 0.08 0.00 40 1007.9
20260507083704 68 210 1.0 3.0 0.00 0.08 0.00 39 1007.9
20260507083205 68 208 0.0 3.0 0.00 0.08 0.00 40 1007.9
20260507080204 67 212 0.0 3.0 0.00 0.08 0.00 41 1007.9
20260507074704 66 212 1.0 3.0 0.00 0.08 0.00 50 1007.9
20260507074205 65 212 1.0 3.0 0.00 0.08 0.00 52 1007.9
20260507073204 64 212 0.0 3.0 0.00 0.08 0.00 52 1007.9
20260507071705 63 212 1.0 3.0 0.00 0.08 0.00 54 1007.9
20260507070705 61 212 0.0 3.0 0.00 0.08 0.00 59 1007.2
20260507063705 57 212 0.0 3.0 0.00 0.08 0.00 65 1007.2
20260507060204 53 212 0.0 3.0 0.00 0.09 0.00 78 1007.2
20260507054704 52 212 1.0 5.0 0.00 0.09 0.00 78 1006.9
20260507051204 49 212 1.0 2.0 0.00 0.14 0.00 80 1006.6
20260507050705 48 212 1.0 5.0 0.00 0.14 0.00 82 1006.6
20260507050205 48 212 0.0 2.0 0.00 0.14 0.00 81 1006.6
20260507044704 48 212 0.0 0.0 0.00 0.14 0.00 78 1006.6
20260507044205 48 212 0.0 1.0 0.00 0.15 0.00 78 1006.4
20260507043204 48 212 0.0 3.0 0.00 0.16 0.00 77 1006.4
20260507040704 48 212 0.0 2.0 0.00 0.23 0.00 78 1006.4
20260507040205 48 212 2.0 3.0 0.00 0.24 0.00 79 1006.1
20260507034704 48 212 0.0 1.0 0.00 0.25 0.00 79 1006.1
20260507031704 48 212 0.0 1.0 0.00 0.26 0.00 80 1006.2
20260507031204 49 212 0.0 0.0 0.00 0.26 0.00 81 1006.2
20260507030704 48 212 0.0 1.0 0.00 0.26 0.00 81 1006.2
20260507024204 48 212 0.0 0.0 0.00 0.27 0.00 81 1006.0
20260507023204 49 212 0.0 3.0 0.00 0.27 0.00 81 1006.0
20260507021204 49 212 1.0 3.0 0.00 0.30 0.00 80 1006.0
20260507014704 49 212 0.0 1.0 0.00 0.34 0.00 80 1005.8
20260507014204 49 212 0.0 0.0 0.00 0.35 0.00 79 1005.8
20260507013704 49 212 0.0 0.0 0.00 0.35 0.00 79 1005.8
20260507013205 49 212 0.0 0.0 0.00 0.36 0.00 80 1005.9
20260507011704 49 212 0.0 0.0 0.00 0.36 0.00 77 1005.6
20260507010205 49 212 0.0 1.0 0.00 0.37 0.00 76 1005.6
20260507004205 50 212 0.0 0.0 0.00 0.45 0.00 76 1005.8
20260507003704 50 212 0.0 1.0 0.00 0.45 0.00 76 1005.8
20260507001204 51 212 0.0 0.0 0.00 0.50 0.00 74 1005.8
20260506233204 53 212 0.0 1.0 0.00 0.50 0.00 67 1005.7
20260506231705 54 212 0.0 1.0 0.00 0.50 0.00 69 1005.6
20260506223705 55 212 0.0 1.0 0.00 0.50 0.00 69 1005.7
20260506221705 56 212 0.0 2.0 0.00 0.50 0.00 66 1005.7
20260506220205 56 212 1.0 3.0 0.00 0.50 0.00 64 1005.6
20260506213706 57 212 0.0 3.0 0.00 0.50 0.50 61 1005.6
20260506213206 57 212 1.0 3.0 0.00 0.50 0.50 60 1005.6
20260506211205 57 212 0.0 2.0 0.00 0.50 0.50 53 1005.3
20260506210705 57 212 1.0 6.0 0.00 0.50 0.50 55 1005.3
20260506204705 58 212 0.0 1.0 0.00 0.50 0.50 61 1005.3
20260506204205 58 212 0.0 0.0 0.00 0.50 0.50 58 1005.3
20260506203705 58 212 0.0 3.0 0.00 0.50 0.50 58 1005.3
20260506203204 58 212 2.0 7.0 0.00 0.50 0.50 57 1005.3
20260506201205 59 212 0.0 3.0 0.00 0.50 0.50 57 1004.6
20260506193204 58 212 0.0 2.0 0.00 0.50 0.50 62 1003.7
20260506191705 57 212 0.0 2.0 0.00 0.50 0.50 65 1003.7
20260506190705 58 212 0.0 0.0 0.00 0.50 0.50 72 1003.7
20260506190204 58 212 0.0 1.0 0.00 0.50 0.50 73 1003.2
20260506184204 60 212 0.0 0.0 0.00 0.50 0.50 69 1003.2
20260506183205 61 212 0.0 2.0 0.00 0.50 0.50 70 1003.2
20260506181704 63 212 0.0 0.0 0.00 0.50 0.50 66 1003.0
20260506181204 63 212 1.0 3.0 0.00 0.50 0.50 65 1003.0